Location: Ca�n Batista
(41.4099°N, 1.7752°E)
Time: 14:43:39
(UTC+00:00)

CZ-4 R/B - Pass Details

Date: 03 March 2021
Orbit: 532 x 597 km, 97.7° (Epoch: 21 April)

Event Time Altitude Azimuth Distance (km) Brightness Sun altitude
Rises 19:36:56 0° 209° (SSW) 2,664 5.1 -21.5°
Reaches altitude 10° 19:39:52 10° 234° (SW) 1,785 4.5 -22.1°
Maximum altitude 19:41:59 14° 268° (W) 1,537 4.5 -22.4°
Drops below altitude 10° 19:44:08 10° 302° (WNW) 1,804 4.9 -22.8°
Sets 19:47:09 0° 327° (NNW) 2,713 5.5 -23.4°
